Location: Dammartin
(48.9032°N, 1.6195°E)
Time: 18:16:08
(UTC+00:00)

BlueWalker 3 - Pass Details

Date: 16 April 2024
Orbit: 482 x 494 km, 53.2° (Epoch: 22 May)

Event Time Altitude Azimuth Distance (km) Brightness Sun altitude
Exits shadow 02:48:54 61° 221° (SW) 571 1.8 -19.4°
Maximum altitude 02:48:59 61° 212° (SSW) 569 1.8 -19.4°
Drops below altitude 10° 02:52:46 10° 132° (SE) 1,693 4.7 -18.9°
Sets 02:54:57 0° 128° (SE) 2,571 5.7 -18.6°
